Location: Unspecified
(29.9680°N, 0.0000°E)
Time: 15:05:12
(UTC+00:00)

A-11 Canister half - Pass Details

Date: 27 June 2019
Orbit: 1526 x 1683 km, 47.3° (Epoch: 20 July)

Event Time Altitude Azimuth Distance (km) Brightness Sun altitude
Rises 07:11:25 0° 305° (NW) 4,705 11.2 25.6°
Reaches altitude 10° 07:15:02 10° 316° (NW) 3,708 10.8 26.3°
Maximum altitude 07:23:01 31° 15° (NNE) 2,444 10.7 28.0°
Drops below altitude 10° 07:30:58 10° 74° (ENE) 3,699 12.7 29.7°
Sets 07:34:34 0° 85° (E) 4,692 12.7 30.5°
